Time,TemperatureF,DewpointF,PressureIn,WindDirection,WindDirectionDegrees,WindSpeedMPH,WindSpeedGustMPH,Humidity,HourlyPrecipIn,Conditions,Clouds,dailyrainin,SoftwareType,DateUTC
2013-01-26 00:00:00,23.5,17.1,30.09,SSE,155,0.0,1.0,76,0.00,,---,0.00,VWS V14.01,2013-01-26 05:00:00,
2013-01-26 00:05:00,23.5,17.4,30.09,SSE,155,2.0,2.0,77,0.00,,---,0.00,VWS V14.01,2013-01-26 05:05:00,
2013-01-26 00:10:00,23.5,17.4,30.09,SSE,155,0.0,2.0,77,0.00,,---,0.00,VWS V14.01,2013-01-26 05:10:00,
2013-01-26 00:15:00,23.6,17.5,30.09,SSE,155,1.0,2.0,77,0.00,,---,0.00,VWS V14.01,2013-01-26 05:15:00,
2013-01-26 00:20:00,23.6,17.5,30.09,SSE,155,0.0,2.0,77,0.00,,---,0.00,VWS V14.01,2013-01-26 05:20:00,
2013-01-26 00:25:00,23.6,17.5,30.08,SSE,155,2.0,2.0,77,0.00,,---,0.00,VWS V14.01,2013-01-26 05:25:00,
2013-01-26 00:30:00,23.6,17.5,30.08,SSE,155,0.0,0.0,77,0.00,,---,0.00,VWS V14.01,2013-01-26 05:30:00,
2013-01-26 00:35:00,23.5,17.4,30.08,SSE,155,0.0,1.0,77,0.00,,---,0.00,VWS V14.01,2013-01-26 05:35:00,
2013-01-26 00:40:00,23.6,17.5,30.08,SSE,155,0.0,1.0,77,0.00,,---,0.00,VWS V14.01,2013-01-26 05:40:00,
2013-01-26 00:45:00,23.6,17.8,30.08,SSE,155,0.0,1.0,78,0.00,,---,0.00,VWS V14.01,2013-01-26 05:45:00,
2013-01-26 00:50:00,23.7,17.9,30.08,SSE,155,0.0,1.0,78,0.00,,---,0.00,VWS V14.01,2013-01-26 05:50:00,
2013-01-26 00:55:00,23.7,17.6,30.08,SSE,155,0.0,1.0,77,0.00,,---,0.00,VWS V14.01,2013-01-26 05:55:00,
2013-01-26 01:00:00,23.7,17.6,30.09,SSE,155,0.0,0.0,77,0.00,,---,0.00,VWS V14.01,2013-01-26 06:00:00,
2013-01-26 01:05:00,23.7,17.6,30.09,SSE,155,0.0,1.0,77,0.00,,---,0.00,VWS V14.01,2013-01-26 06:05:00,
2013-01-26 01:10:00,23.8,17.7,30.09,SSE,155,1.0,2.0,77,0.00,,---,0.00,VWS V14.01,2013-01-26 06:10:00,
2013-01-26 01:15:00,23.8,17.7,30.09,SSE,155,2.0,2.0,77,0.00,,---,0.00,VWS V14.01,2013-01-26 06:15:00,
2013-01-26 01:20:00,23.8,17.7,30.09,SSE,155,0.0,3.0,77,0.00,,---,0.00,VWS V14.01,2013-01-26 06:20:00,
2013-01-26 01:25:00,23.7,17.6,30.09,ESE,117,1.0,3.0,77,0.00,,---,0.00,VWS V14.01,2013-01-26 06:25:00,
2013-01-26 01:30:00,23.6,17.5,30.09,ESE,117,3.0,3.0,77,0.00,,---,0.00,VWS V14.01,2013-01-26 06:30:00,
2013-01-26 01:35:00,23.6,17.8,30.09,ESE,117,2.0,3.0,78,0.00,,---,0.00,VWS V14.01,2013-01-26 06:35:00,
2013-01-26 01:40:00,23.5,17.7,30.10,ESE,117,1.0,3.0,78,0.00,,---,0.00,VWS V14.01,2013-01-26 06:40:00,
2013-01-26 01:45:00,23.5,17.7,30.10,ESE,117,0.0,3.0,78,0.00,,---,0.00,VWS V14.01,2013-01-26 06:45:00,
2013-01-26 01:50:00,23.5,17.7,30.10,ESE,117,0.0,3.0,78,0.00,,---,0.00,VWS V14.01,2013-01-26 06:50:00,
2013-01-26 01:55:00,23.5,17.7,30.09,ESE,117,0.0,3.0,78,0.00,,---,0.00,VWS V14.01,2013-01-26 06:55:00,
2013-01-26 02:00:00,23.5,17.7,30.10,ESE,117,0.0,1.0,78,0.00,,---,0.00,VWS V14.01,2013-01-26 07:00:00,
2013-01-26 02:05:00,23.5,17.7,30.10,ESE,117,0.0,1.0,78,0.00,,---,0.00,VWS V14.01,2013-01-26 07:05:00,
2013-01-26 02:10:00,23.5,17.7,30.10,ESE,117,0.0,2.0,78,0.00,,---,0.00,VWS V14.01,2013-01-26 07:10:00,
2013-01-26 02:15:00,23.5,17.7,30.11,ESE,117,2.0,2.0,78,0.00,,---,0.00,VWS V14.01,2013-01-26 07:15:00,
2013-01-26 02:20:00,23.6,17.8,30.11,NNE,33,1.0,3.0,78,0.00,,---,0.00,VWS V14.01,2013-01-26 07:20:00,
2013-01-26 02:25:00,23.6,17.8,30.11,NNE,33,1.0,3.0,78,0.00,,---,0.00,VWS V14.01,2013-01-26 07:25:00,
2013-01-26 02:30:00,23.5,18.0,30.11,NNE,33,2.0,3.0,79,0.00,,---,0.00,VWS V14.01,2013-01-26 07:30:00,
2013-01-26 02:35:00,23.5,18.0,30.11,NE,34,2.0,3.0,79,0.00,,---,0.00,VWS V14.01,2013-01-26 07:35:00,
2013-01-26 02:40:00,23.4,17.9,30.11,NE,34,0.0,3.0,79,0.00,,---,0.00,VWS V14.01,2013-01-26 07:40:00,
2013-01-26 02:45:00,23.3,17.8,30.11,NNE,33,0.0,3.0,79,0.00,,---,0.00,VWS V14.01,2013-01-26 07:45:00,
2013-01-26 02:50:00,23.1,17.6,30.11,NNE,33,2.0,3.0,79,0.00,,---,0.00,VWS V14.01,2013-01-26 07:50:00,
2013-01-26 02:55:00,23.0,17.8,30.12,NNE,33,1.0,3.0,80,0.00,,---,0.00,VWS V14.01,2013-01-26 07:55:00,
2013-01-26 03:00:00,22.9,17.7,30.12,North,350,2.0,4.0,80,0.00,,---,0.00,VWS V14.01,2013-01-26 08:00:00,
2013-01-26 03:05:00,22.7,17.8,30.12,North,350,2.0,4.0,81,0.00,,---,0.00,VWS V14.01,2013-01-26 08:05:00,
2013-01-26 03:10:00,22.6,17.7,30.12,North,350,0.0,4.0,81,0.00,,---,0.00,VWS V14.01,2013-01-26 08:10:00,
2013-01-26 03:15:00,22.5,17.6,30.12,North,350,0.0,4.0,81,0.00,,---,0.00,VWS V14.01,2013-01-26 08:15:00,
2013-01-26 03:20:00,22.4,17.5,30.12,North,350,0.0,4.0,81,0.00,,---,0.00,VWS V14.01,2013-01-26 08:20:00,
2013-01-26 03:25:00,22.3,17.6,30.12,North,350,0.0,4.0,82,0.00,,---,0.00,VWS V14.01,2013-01-26 08:25:00,
2013-01-26 03:30:00,22.2,17.5,30.12,North,350,1.0,4.0,82,0.00,,---,0.00,VWS V14.01,2013-01-26 08:30:00,
2013-01-26 03:35:00,22.1,17.5,30.12,North,350,1.0,2.0,82,0.00,,---,0.00,VWS V14.01,2013-01-26 08:35:00,
2013-01-26 03:40:00,22.0,17.4,30.13,North,350,1.0,3.0,82,0.00,,---,0.00,VWS V14.01,2013-01-26 08:40:00,
2013-01-26 03:45:00,21.9,17.5,30.13,North,350,2.0,3.0,83,0.00,,---,0.00,VWS V14.01,2013-01-26 08:45:00,
2013-01-26 03:50:00,21.8,17.4,30.13,North,351,1.0,3.0,83,0.00,,---,0.00,VWS V14.01,2013-01-26 08:50:00,
2013-01-26 03:55:00,21.8,17.4,30.13,North,350,0.0,3.0,83,0.00,,---,0.00,VWS V14.01,2013-01-26 08:55:00,
2013-01-26 04:00:00,21.8,17.4,30.14,North,351,0.0,3.0,83,0.00,,---,0.00,VWS V14.01,2013-01-26 09:00:00,
2013-01-26 04:05:00,21.9,17.8,30.14,North,351,1.0,2.0,84,0.00,,---,0.00,VWS V14.01,2013-01-26 09:05:00,
2013-01-26 04:10:00,21.9,17.8,30.14,North,351,0.0,2.0,84,0.00,,---,0.00,VWS V14.01,2013-01-26 09:10:00,
2013-01-26 04:15:00,21.9,17.8,30.14,North,351,0.0,2.0,84,0.00,,---,0.00,VWS V14.01,2013-01-26 09:15:00,
2013-01-26 04:20:00,21.8,17.7,30.14,North,350,3.0,3.0,84,0.00,,---,0.00,VWS V14.01,2013-01-26 09:20:00,
2013-01-26 04:25:00,21.8,17.7,30.14,NNW,342,2.0,4.0,84,0.00,,---,0.00,VWS V14.01,2013-01-26 09:25:00,
2013-01-26 04:30:00,21.7,17.6,30.14,NNW,342,2.0,4.0,84,0.00,,---,0.00,VWS V14.01,2013-01-26 09:30:00,
2013-01-26 04:35:00,21.7,17.6,30.15,NNW,342,3.0,4.0,84,0.00,,---,0.00,VWS V14.01,2013-01-26 09:35:00,
2013-01-26 04:40:00,21.7,17.6,30.15,NNW,347,2.0,4.0,84,0.00,,---,0.00,VWS V14.01,2013-01-26 09:40:00,
2013-01-26 04:45:00,21.6,17.5,30.15,NNW,347,1.0,4.0,84,0.00,,---,0.00,VWS V14.01,2013-01-26 09:45:00,
2013-01-26 04:50:00,21.6,17.5,30.15,NNW,346,0.0,4.0,84,0.00,,---,0.00,VWS V14.01,2013-01-26 09:50:00,
2013-01-26 04:55:00,21.7,17.6,30.15,NNW,346,0.0,4.0,84,0.00,,---,0.00,VWS V14.01,2013-01-26 09:55:00,
2013-01-26 05:00:00,21.7,17.6,30.15,NNW,347,1.0,4.0,84,0.00,,---,0.00,VWS V14.01,2013-01-26 10:00:00,
2013-01-26 05:05:00,21.7,17.6,30.15,NNW,347,0.0,2.0,84,0.00,,---,0.00,VWS V14.01,2013-01-26 10:05:00,
2013-01-26 05:10:00,21.7,17.6,30.16,North,351,0.0,3.0,84,0.00,,---,0.00,VWS V14.01,2013-01-26 10:10:00,
2013-01-26 05:15:00,21.7,17.6,30.16,North,350,0.0,3.0,84,0.00,,---,0.00,VWS V14.01,2013-01-26 10:15:00,
2013-01-26 05:20:00,21.8,17.7,30.16,NE,44,1.0,3.0,84,0.00,,---,0.00,VWS V14.01,2013-01-26 10:20:00,
2013-01-26 05:25:00,21.8,17.7,30.16,NE,44,0.0,3.0,84,0.00,,---,0.00,VWS V14.01,2013-01-26 10:25:00,
2013-01-26 05:30:00,21.8,18.0,30.17,NE,44,1.0,3.0,85,0.00,,---,0.00,VWS V14.01,2013-01-26 10:30:00,
2013-01-26 05:35:00,21.8,18.0,30.17,NNE,26,0.0,2.0,85,0.00,,---,0.00,VWS V14.01,2013-01-26 10:35:00,
2013-01-26 05:40:00,21.9,18.1,30.17,NNE,27,1.0,2.0,85,0.00,,---,0.00,VWS V14.01,2013-01-26 10:40:00,
2013-01-26 05:45:00,21.9,18.1,30.17,NNE,27,0.0,2.0,85,0.00,,---,0.00,VWS V14.01,2013-01-26 10:45:00,
2013-01-26 05:50:00,22.0,18.2,30.18,NNE,26,2.0,2.0,85,0.00,,---,0.00,VWS V14.01,2013-01-26 10:50:00,
2013-01-26 05:55:00,22.0,18.2,30.18,NNE,26,0.0,3.0,85,0.00,,---,0.00,VWS V14.01,2013-01-26 10:55:00,
2013-01-26 06:00:00,22.0,18.2,30.18,NNE,27,0.0,3.0,85,0.00,,---,0.00,VWS V14.01,2013-01-26 11:00:00,
2013-01-26 06:05:00,22.1,18.3,30.18,NNE,27,2.0,3.0,85,0.00,,---,0.00,VWS V14.01,2013-01-26 11:05:00,
2013-01-26 06:10:00,22.1,18.3,30.18,NW,312,4.0,4.0,85,0.00,,---,0.00,VWS V14.01,2013-01-26 11:10:00,
2013-01-26 06:15:00,22.0,18.2,30.19,NW,317,3.0,4.0,85,0.00,,---,0.00,VWS V14.01,2013-01-26 11:15:00,
2013-01-26 06:20:00,22.0,18.2,30.19,NNW,339,2.0,5.0,85,0.00,,---,0.00,VWS V14.01,2013-01-26 11:20:00,
2013-01-26 06:25:00,22.0,18.2,30.19,NNW,337,1.0,5.0,85,0.00,,---,0.00,VWS V14.01,2013-01-26 11:25:00,
2013-01-26 06:30:00,21.8,18.0,30.19,North,11,2.0,6.0,85,0.00,,---,0.00,VWS V14.01,2013-01-26 11:30:00,
2013-01-26 06:35:00,21.7,17.9,30.19,North,11,1.0,3.0,85,0.00,,---,0.00,VWS V14.01,2013-01-26 11:35:00,
2013-01-26 06:40:00,21.7,17.9,30.20,North,10,1.0,3.0,85,0.00,,---,0.00,VWS V14.01,2013-01-26 11:40:00,
2013-01-26 06:45:00,21.7,18.2,30.19,North,10,0.0,3.0,86,0.00,,---,0.00,VWS V14.01,2013-01-26 11:45:00,
2013-01-26 06:50:00,21.6,18.1,30.20,North,10,0.0,3.0,86,0.00,,---,0.00,VWS V14.01,2013-01-26 11:50:00,
2013-01-26 06:55:00,21.6,18.1,30.20,North,10,1.0,3.0,86,0.00,,---,0.00,VWS V14.01,2013-01-26 11:55:00,
2013-01-26 07:00:00,21.6,18.1,30.20,North,11,0.0,3.0,86,0.00,,---,0.00,VWS V14.01,2013-01-26 12:00:00,
2013-01-26 07:05:00,21.6,18.1,30.21,North,11,0.0,0.0,86,0.00,,---,0.00,VWS V14.01,2013-01-26 12:05:00,
2013-01-26 07:10:00,21.6,18.1,30.21,North,11,0.0,0.0,86,0.00,,---,0.00,VWS V14.01,2013-01-26 12:10:00,
2013-01-26 07:15:00,21.6,18.1,30.21,North,10,1.0,1.0,86,0.00,,---,0.00,VWS V14.01,2013-01-26 12:15:00,
2013-01-26 07:19:00,21.6,18.3,30.21,North,11,1.0,2.0,87,0.00,,---,0.00,VWS V14.01,2013-01-26 12:19:00,
2013-01-26 07:24:00,21.6,18.1,30.21,North,10,0.0,2.0,86,0.00,,---,0.00,VWS V14.01,2013-01-26 12:24:00,
2013-01-26 07:29:00,21.7,18.4,30.21,North,11,0.0,2.0,87,0.00,,---,0.00,VWS V14.01,2013-01-26 12:29:00,
2013-01-26 07:34:00,21.7,18.4,30.21,North,10,0.0,0.0,87,0.00,,---,0.00,VWS V14.01,2013-01-26 12:34:00,
2013-01-26 07:39:00,21.7,18.4,30.22,North,11,0.0,1.0,87,0.00,,---,0.00,VWS V14.01,2013-01-26 12:39:00,
2013-01-26 07:44:00,21.8,18.5,30.22,North,11,0.0,1.0,87,0.00,,---,0.00,VWS V14.01,2013-01-26 12:44:00,
2013-01-26 07:49:00,21.9,18.6,30.22,North,10,0.0,2.0,87,0.00,,---,0.00,VWS V14.01,2013-01-26 12:49:00,
2013-01-26 07:54:00,21.9,18.6,30.22,North,11,1.0,2.0,87,0.00,,---,0.00,VWS V14.01,2013-01-26 12:54:00,
2013-01-26 07:59:00,22.0,18.7,30.22,North,10,2.0,2.0,87,0.00,,---,0.00,VWS V14.01,2013-01-26 12:59:00,
2013-01-26 08:04:00,22.0,18.7,30.22,North,10,2.0,2.0,87,0.00,,---,0.00,VWS V14.01,2013-01-26 13:04:00,
2013-01-26 08:09:00,22.0,18.7,30.23,North,11,0.0,3.0,87,0.00,,---,0.00,VWS V14.01,2013-01-26 13:09:00,
2013-01-26 08:14:00,22.0,18.7,30.23,North,11,0.0,3.0,87,0.00,,---,0.00,VWS V14.01,2013-01-26 13:14:00,
2013-01-26 08:19:00,22.1,18.8,30.23,North,9,1.0,3.0,87,0.00,,---,0.00,VWS V14.01,2013-01-26 13:19:00,
2013-01-26 08:24:00,22.1,18.8,30.24,North,9,0.0,3.0,87,0.00,,---,0.00,VWS V14.01,2013-01-26 13:24:00,
2013-01-26 08:29:00,22.1,18.8,30.24,North,9,2.0,3.0,87,0.00,,---,0.00,VWS V14.01,2013-01-26 13:29:00,
2013-01-26 08:34:00,22.1,18.8,30.24,North,9,1.0,2.0,87,0.00,,---,0.00,VWS V14.01,2013-01-26 13:34:00,
2013-01-26 08:39:00,22.2,18.9,30.24,North,9,0.0,2.0,87,0.00,,---,0.00,VWS V14.01,2013-01-26 13:39:00,
2013-01-26 08:44:00,22.4,19.1,30.24,North,9,0.0,2.0,87,0.00,,---,0.00,VWS V14.01,2013-01-26 13:44:00,
2013-01-26 08:49:00,22.5,19.2,30.24,North,9,0.0,2.0,87,0.00,,---,0.00,VWS V14.01,2013-01-26 13:49:00,
2013-01-26 08:54:00,22.6,19.3,30.24,North,9,0.0,2.0,87,0.00,,---,0.00,VWS V14.01,2013-01-26 13:54:00,
2013-01-26 08:59:00,22.7,19.4,30.24,North,9,0.0,2.0,87,0.00,,---,0.00,VWS V14.01,2013-01-26 13:59:00,
2013-01-26 09:04:00,22.9,19.6,30.24,North,9,0.0,1.0,87,0.00,,---,0.00,VWS V14.01,2013-01-26 14:04:00,
2013-01-26 09:09:00,23.1,19.8,30.24,North,9,0.0,1.0,87,0.00,,---,0.00,VWS V14.01,2013-01-26 14:09:00,
2013-01-26 09:14:00,23.4,20.1,30.25,North,9,0.0,1.0,87,0.00,,---,0.00,VWS V14.01,2013-01-26 14:14:00,
2013-01-26 09:19:00,23.8,20.5,30.25,North,9,0.0,2.0,87,0.00,,---,0.00,VWS V14.01,2013-01-26 14:19:00,
2013-01-26 09:24:00,23.9,20.6,30.25,North,9,0.0,2.0,87,0.00,,---,0.00,VWS V14.01,2013-01-26 14:24:00,
2013-01-26 09:29:00,24.2,20.9,30.25,North,9,0.0,2.0,87,0.00,,---,0.00,VWS V14.01,2013-01-26 14:29:00,
2013-01-26 09:34:00,24.4,21.1,30.25,North,9,0.0,1.0,87,0.00,,---,0.00,VWS V14.01,2013-01-26 14:34:00,
2013-01-26 09:39:00,24.6,21.0,30.25,North,9,0.0,2.0,86,0.00,,---,0.00,VWS V14.01,2013-01-26 14:39:00,
2013-01-26 09:44:00,24.6,21.0,30.25,North,9,0.0,2.0,86,0.00,,---,0.00,VWS V14.01,2013-01-26 14:44:00,
2013-01-26 09:49:00,24.8,21.2,30.26,North,9,0.0,2.0,86,0.00,,---,0.00,VWS V14.01,2013-01-26 14:49:00,
2013-01-26 09:54:00,25.1,21.5,30.26,North,9,0.0,2.0,86,0.00,,---,0.00,VWS V14.01,2013-01-26 14:54:00,
2013-01-26 09:59:00,25.6,22.3,30.26,North,9,0.0,2.0,87,0.00,,---,0.00,VWS V14.01,2013-01-26 14:59:00,
2013-01-26 10:04:00,26.1,22.5,30.26,North,9,1.0,3.0,86,0.00,,---,0.00,VWS V14.01,2013-01-26 15:04:00,
2013-01-26 10:09:00,26.3,22.7,30.26,North,5,0.0,3.0,86,0.00,,---,0.00,VWS V14.01,2013-01-26 15:09:00,
2013-01-26 10:14:00,26.8,23.2,30.26,WSW,256,0.0,3.0,86,0.00,,---,0.00,VWS V14.01,2013-01-26 15:14:00,
2013-01-26 10:19:00,27.3,23.4,30.27,WSW,256,0.0,3.0,85,0.00,,---,0.00,VWS V14.01,2013-01-26 15:19:00,
2013-01-26 10:24:00,27.5,23.3,30.27,WSW,256,0.0,3.0,84,0.00,,---,0.00,VWS V14.01,2013-01-26 15:24:00,
2013-01-26 10:29:00,27.8,23.3,30.27,WSW,257,1.0,3.0,83,0.00,,---,0.00,VWS V14.01,2013-01-26 15:29:00,
2013-01-26 10:34:00,27.8,23.3,30.27,West,273,2.0,3.0,83,0.00,,---,0.00,VWS V14.01,2013-01-26 15:34:00,
2013-01-26 10:39:00,28.1,23.3,30.27,NNW,340,0.0,3.0,82,0.00,,---,0.00,VWS V14.01,2013-01-26 15:39:00,
2013-01-26 10:44:00,28.3,23.5,30.27,NNW,340,1.0,3.0,82,0.00,,---,0.00,VWS V14.01,2013-01-26 15:44:00,
2013-01-26 10:49:00,28.8,24.0,30.27,NNW,340,1.0,3.0,82,0.00,,---,0.00,VWS V14.01,2013-01-26 15:49:00,
2013-01-26 10:54:00,29.2,24.1,30.27,NNW,340,2.0,3.0,81,0.00,,---,0.00,VWS V14.01,2013-01-26 15:54:00,
2013-01-26 10:59:00,29.5,24.1,30.26,NNW,348,3.0,3.0,80,0.00,,---,0.00,VWS V14.01,2013-01-26 15:59:00,
2013-01-26 11:04:00,29.7,24.3,30.26,NNW,332,3.0,3.0,80,0.00,,---,0.00,VWS V14.01,2013-01-26 16:04:00,
2013-01-26 11:09:00,29.7,24.0,30.26,NNW,335,2.0,5.0,79,0.00,,---,0.00,VWS V14.01,2013-01-26 16:09:00,
2013-01-26 11:14:00,29.7,23.7,30.26,NW,311,1.0,5.0,78,0.00,,---,0.00,VWS V14.01,2013-01-26 16:14:00,
2013-01-26 11:19:00,29.9,23.9,30.26,NW,315,3.0,5.0,78,0.00,,---,0.00,VWS V14.01,2013-01-26 16:19:00,
2013-01-26 11:24:00,30.1,24.1,30.26,NW,315,1.0,5.0,78,0.00,,---,0.00,VWS V14.01,2013-01-26 16:24:00,
2013-01-26 11:29:00,30.4,24.4,30.26,NW,315,1.0,5.0,78,0.00,,---,0.00,VWS V14.01,2013-01-26 16:29:00,
2013-01-26 11:34:00,30.7,24.4,30.26,NW,315,1.0,4.0,77,0.00,,---,0.00,VWS V14.01,2013-01-26 16:34:00,
2013-01-26 11:39:00,30.5,24.2,30.26,NNW,331,0.0,4.0,77,0.00,,---,0.00,VWS V14.01,2013-01-26 16:39:00,
2013-01-26 11:44:00,30.6,24.0,30.26,NNW,331,3.0,4.0,76,0.00,,---,0.00,VWS V14.01,2013-01-26 16:44:00,
2013-01-26 11:49:00,30.8,24.5,30.26,NNW,338,1.0,4.0,77,0.01,,---,0.01,VWS V14.01,2013-01-26 16:49:00,
2013-01-26 11:54:00,31.4,25.0,30.25,NNW,338,2.0,4.0,77,0.01,,---,0.01,VWS V14.01,2013-01-26 16:54:00,
2013-01-26 11:59:00,31.6,24.9,30.25,NW,325,1.0,4.0,76,0.01,,---,0.01,VWS V14.01,2013-01-26 16:59:00,
2013-01-26 12:04:00,32.0,25.0,30.25,SSW,213,3.0,3.0,75,0.01,,---,0.01,VWS V14.01,2013-01-26 17:04:00,
2013-01-26 12:09:00,32.3,25.0,30.25,SSW,213,1.0,3.0,74,0.01,,---,0.01,VWS V14.01,2013-01-26 17:09:00,
2013-01-26 12:14:00,32.3,25.0,30.25,SSW,194,4.0,5.0,74,0.01,,---,0.01,VWS V14.01,2013-01-26 17:14:00,
2013-01-26 12:19:00,32.1,24.4,30.24,South,182,2.0,6.0,73,0.01,,---,0.01,VWS V14.01,2013-01-26 17:19:00,
2013-01-26 12:24:00,32.0,24.7,30.24,ESE,123,0.0,6.0,74,0.01,,---,0.01,VWS V14.01,2013-01-26 17:24:00,
2013-01-26 12:29:00,32.5,25.5,30.24,SSW,199,0.0,6.0,75,0.01,,---,0.01,VWS V14.01,2013-01-26 17:29:00,
2013-01-26 12:34:00,32.6,25.2,30.24,SW,224,1.0,4.0,74,0.01,,---,0.01,VWS V14.01,2013-01-26 17:34:00,
2013-01-26 12:39:00,32.9,25.5,30.24,South,183,0.0,4.0,74,0.01,,---,0.01,VWS V14.01,2013-01-26 17:39:00,
2013-01-26 12:44:00,32.9,25.2,30.24,South,190,1.0,4.0,73,0.01,,---,0.01,VWS V14.01,2013-01-26 17:44:00,
2013-01-26 12:49:00,32.9,25.2,30.23,WNW,300,1.0,4.0,73,0.01,,---,0.01,VWS V14.01,2013-01-26 17:49:00,
2013-01-26 12:54:00,33.1,25.4,30.23,WNW,300,1.0,4.0,73,0.01,,---,0.01,VWS V14.01,2013-01-26 17:54:00,
2013-01-26 12:59:00,33.7,26.3,30.23,WNW,300,2.0,4.0,74,0.01,,---,0.01,VWS V14.01,2013-01-26 17:59:00,
2013-01-26 13:04:00,33.8,27.0,30.23,South,171,2.0,4.0,76,0.00,,---,0.01,VWS V14.01,2013-01-26 18:04:00,
2013-01-26 13:09:00,33.7,25.3,30.23,South,171,1.0,4.0,71,0.00,,---,0.01,VWS V14.01,2013-01-26 18:09:00,
2013-01-26 13:14:00,33.5,25.1,30.23,SSW,212,2.0,4.0,71,0.00,,---,0.01,VWS V14.01,2013-01-26 18:14:00,
2013-01-26 13:19:00,33.5,25.1,30.23,SSW,211,0.0,4.0,71,0.00,,---,0.01,VWS V14.01,2013-01-26 18:19:00,
2013-01-26 13:24:00,33.2,24.5,30.23,West,267,0.0,5.0,70,0.00,,---,0.01,VWS V14.01,2013-01-26 18:24:00,
2013-01-26 13:29:00,33.0,24.6,30.23,WSW,241,3.0,5.0,71,0.00,,---,0.01,VWS V14.01,2013-01-26 18:29:00,
2013-01-26 13:34:00,33.0,25.0,30.23,NW,307,2.0,3.0,72,0.00,,---,0.01,VWS V14.01,2013-01-26 18:34:00,
2013-01-26 13:39:00,33.0,25.0,30.23,NW,307,2.0,3.0,72,0.00,,---,0.01,VWS V14.01,2013-01-26 18:39:00,
2013-01-26 13:44:00,32.9,25.2,30.23,NW,307,1.0,3.0,73,0.00,,---,0.01,VWS V14.01,2013-01-26 18:44:00,
2013-01-26 13:49:00,33.0,25.3,30.23,South,182,2.0,4.0,73,0.00,,---,0.01,VWS V14.01,2013-01-26 18:49:00,
2013-01-26 13:54:00,33.2,25.8,30.24,South,182,0.0,4.0,74,0.00,,---,0.01,VWS V14.01,2013-01-26 18:54:00,
2013-01-26 13:59:00,33.2,25.5,30.24,South,182,0.0,4.0,73,0.00,,---,0.01,VWS V14.01,2013-01-26 18:59:00,
2013-01-26 14:04:00,33.3,25.9,30.24,South,182,1.0,3.0,74,0.00,,---,0.01,VWS V14.01,2013-01-26 19:04:00,
2013-01-26 14:09:00,33.3,25.9,30.24,South,182,0.0,3.0,74,0.00,,---,0.01,VWS V14.01,2013-01-26 19:09:00,
2013-01-26 14:14:00,33.4,26.0,30.24,SSW,203,1.0,3.0,74,0.00,,---,0.01,VWS V14.01,2013-01-26 19:14:00,
2013-01-26 14:19:00,33.6,26.2,30.25,WNW,303,2.0,3.0,74,0.00,,---,0.01,VWS V14.01,2013-01-26 19:19:00,
2013-01-26 14:24:00,33.4,25.7,30.25,WNW,303,1.0,4.0,73,0.00,,---,0.01,VWS V14.01,2013-01-26 19:24:00,
2013-01-26 14:29:00,33.4,25.7,30.25,WNW,288,0.0,4.0,73,0.00,,---,0.01,VWS V14.01,2013-01-26 19:29:00,
2013-01-26 14:34:00,33.7,26.3,30.25,WNW,290,2.0,3.0,74,0.00,,---,0.01,VWS V14.01,2013-01-26 19:34:00,
2013-01-26 14:39:00,33.3,25.6,30.25,NW,306,2.0,4.0,73,0.00,,---,0.01,VWS V14.01,2013-01-26 19:39:00,
2013-01-26 14:44:00,33.1,25.4,30.25,NW,306,2.0,4.0,73,0.00,,---,0.01,VWS V14.01,2013-01-26 19:44:00,
2013-01-26 14:49:00,32.9,25.5,30.25,NW,309,0.0,4.0,74,0.00,,---,0.01,VWS V14.01,2013-01-26 19:49:00,
2013-01-26 14:54:00,33.0,25.6,30.25,NW,309,0.0,4.0,74,0.00,,---,0.01,VWS V14.01,2013-01-26 19:54:00,
2013-01-26 14:59:00,33.0,25.6,30.25,NW,309,2.0,4.0,74,0.00,,---,0.01,VWS V14.01,2013-01-26 19:59:00,
2013-01-26 15:04:00,32.9,25.5,30.25,NW,309,1.0,2.0,74,0.00,,---,0.01,VWS V14.01,2013-01-26 20:04:00,
2013-01-26 15:09:00,33.0,25.6,30.25,NW,309,1.0,2.0,74,0.00,,---,0.01,VWS V14.01,2013-01-26 20:09:00,
2013-01-26 15:14:00,33.3,26.2,30.26,NW,309,1.0,3.0,75,0.00,,---,0.01,VWS V14.01,2013-01-26 20:14:00,
2013-01-26 15:19:00,33.5,25.8,30.26,NW,307,3.0,4.0,73,0.00,,---,0.01,VWS V14.01,2013-01-26 20:19:00,
2013-01-26 15:24:00,33.4,25.7,30.26,NW,320,0.0,4.0,73,0.00,,---,0.01,VWS V14.01,2013-01-26 20:24:00,
2013-01-26 15:29:00,33.5,25.8,30.26,NNW,336,4.0,5.0,73,0.00,,---,0.01,VWS V14.01,2013-01-26 20:29:00,
2013-01-26 15:34:00,33.5,25.8,30.26,WNW,302,3.0,5.0,73,0.00,,---,0.01,VWS V14.01,2013-01-26 20:34:00,
2013-01-26 15:39:00,33.5,25.8,30.26,NNW,333,5.0,5.0,73,0.00,,---,0.01,VWS V14.01,2013-01-26 20:39:00,
2013-01-26 15:44:00,33.8,25.7,30.26,NW,319,3.0,7.0,72,0.00,,---,0.01,VWS V14.01,2013-01-26 20:44:00,
2013-01-26 15:49:00,33.8,27.0,30.27,WNW,297,1.0,7.0,76,0.00,,---,0.01,VWS V14.01,2013-01-26 20:49:00,
2013-01-26 15:54:00,33.9,25.5,30.27,NNW,335,3.0,7.0,71,0.00,,---,0.01,VWS V14.01,2013-01-26 20:54:00,
2013-01-26 15:59:00,33.8,25.4,30.27,NW,319,4.0,7.0,71,0.00,,---,0.01,VWS V14.01,2013-01-26 20:59:00,
2013-01-26 16:04:00,33.7,25.3,30.27,North,355,6.0,6.0,71,0.00,,---,0.01,VWS V14.01,2013-01-26 21:04:00,
2013-01-26 16:09:00,33.9,25.5,30.27,North,360,7.0,9.0,71,0.00,,---,0.01,VWS V14.01,2013-01-26 21:09:00,
2013-01-26 16:14:00,33.7,25.0,30.27,NNW,342,4.0,9.0,70,0.00,,---,0.01,VWS V14.01,2013-01-26 21:14:00,
2013-01-26 16:19:00,33.7,25.3,30.28,NE,46,2.0,9.0,71,0.00,,---,0.01,VWS V14.01,2013-01-26 21:19:00,
2013-01-26 16:24:00,33.7,25.3,30.28,ENE,74,2.0,9.0,71,0.00,,---,0.01,VWS V14.01,2013-01-26 21:24:00,
2013-01-26 16:29:00,33.5,25.1,30.28,NE,51,2.0,9.0,71,0.00,,---,0.01,VWS V14.01,2013-01-26 21:29:00,
2013-01-26 16:34:00,33.4,25.4,30.29,NNE,28,2.0,5.0,72,0.00,,---,0.01,VWS V14.01,2013-01-26 21:34:00,
2013-01-26 16:39:00,33.4,25.4,30.29,NW,306,3.0,5.0,72,0.00,,---,0.01,VWS V14.01,2013-01-26 21:39:00,
2013-01-26 16:44:00,33.1,24.7,30.29,NNE,31,4.0,5.0,71,0.00,,---,0.01,VWS V14.01,2013-01-26 21:44:00,
2013-01-26 16:49:00,32.9,24.5,30.29,North,349,2.0,5.0,71,0.00,,---,0.01,VWS V14.01,2013-01-26 21:49:00,
2013-01-26 16:53:00,32.8,24.5,30.29,NNW,342,2.0,6.0,71,0.00,,---,0.01,VWS V14.01,2013-01-26 21:53:00,
2013-01-26 16:58:00,32.7,24.4,30.29,North,5,3.0,6.0,71,0.00,,---,0.01,VWS V14.01,2013-01-26 21:58:00,
2013-01-26 17:03:00,32.7,24.7,30.30,North,360,4.0,6.0,72,0.00,,---,0.01,VWS V14.01,2013-01-26 22:03:00,
2013-01-26 17:08:00,32.6,24.6,30.30,North,360,2.0,6.0,72,0.00,,---,0.01,VWS V14.01,2013-01-26 22:08:00,
2013-01-26 17:13:00,32.5,24.5,30.30,North,360,2.0,6.0,72,0.00,,---,0.01,VWS V14.01,2013-01-26 22:13:00,
2013-01-26 17:18:00,32.4,24.4,30.30,NNE,19,3.0,6.0,72,0.00,,---,0.01,VWS V14.01,2013-01-26 22:18:00,
2013-01-26 17:23:00,32.4,24.4,30.31,NNE,23,1.0,6.0,72,0.00,,---,0.01,VWS V14.01,2013-01-26 22:23:00,
2013-01-26 17:28:00,32.2,24.5,30.31,NNE,23,0.0,6.0,73,0.00,,---,0.01,VWS V14.01,2013-01-26 22:28:00,
2013-01-26 17:33:00,32.1,24.4,30.31,NNE,23,0.0,1.0,73,0.00,,---,0.01,VWS V14.01,2013-01-26 22:33:00,
2013-01-26 17:38:00,32.0,24.3,30.31,NNE,22,1.0,2.0,73,0.00,,---,0.01,VWS V14.01,2013-01-26 22:38:00,
2013-01-26 17:43:00,31.8,24.1,30.32,NNE,23,0.0,2.0,73,0.00,,---,0.01,VWS V14.01,2013-01-26 22:43:00,
2013-01-26 17:48:00,31.6,24.0,30.32,NNE,23,0.0,2.0,73,0.00,,---,0.01,VWS V14.01,2013-01-26 22:48:00,
2013-01-26 17:53:00,31.5,23.9,30.32,NNE,22,0.0,2.0,73,0.00,,---,0.01,VWS V14.01,2013-01-26 22:53:00,
2013-01-26 17:58:00,31.4,23.8,30.33,NNE,22,2.0,3.0,73,0.00,,---,0.01,VWS V14.01,2013-01-26 22:58:00,
2013-01-26 18:03:00,31.4,23.8,30.33,NNE,22,1.0,3.0,73,0.00,,---,0.01,VWS V14.01,2013-01-26 23:03:00,
2013-01-26 18:08:00,31.3,23.7,30.33,NNE,23,1.0,3.0,73,0.00,,---,0.01,VWS V14.01,2013-01-26 23:08:00,
2013-01-26 18:13:00,31.2,23.6,30.33,NNE,23,1.0,3.0,73,0.00,,---,0.01,VWS V14.01,2013-01-26 23:13:00,
2013-01-26 18:18:00,31.2,23.2,30.34,NNE,22,1.0,3.0,72,0.00,,---,0.01,VWS V14.01,2013-01-26 23:18:00,
2013-01-26 18:23:00,31.2,22.9,30.34,NNE,22,0.0,3.0,71,0.00,,---,0.01,VWS V14.01,2013-01-26 23:23:00,
2013-01-26 18:28:00,31.1,23.1,30.34,NNE,22,0.0,3.0,72,0.00,,---,0.01,VWS V14.01,2013-01-26 23:28:00,
2013-01-26 18:33:00,31.0,23.0,30.34,NNE,22,1.0,2.0,72,0.00,,---,0.01,VWS V14.01,2013-01-26 23:33:00,
2013-01-26 18:38:00,31.0,22.7,30.34,NNE,22,0.0,2.0,71,0.00,,---,0.01,VWS V14.01,2013-01-26 23:38:00,
2013-01-26 18:43:00,31.0,22.7,30.35,NNE,22,0.0,2.0,71,0.00,,---,0.01,VWS V14.01,2013-01-26 23:43:00,
2013-01-26 18:48:00,30.9,23.0,30.35,NNE,22,1.0,2.0,72,0.00,,---,0.01,VWS V14.01,2013-01-26 23:48:00,
2013-01-26 18:53:00,31.0,22.0,30.35,NNW,346,4.0,6.0,69,0.00,,---,0.01,VWS V14.01,2013-01-26 23:53:00,
2013-01-26 18:58:00,31.2,21.9,30.36,NNW,338,3.0,6.0,68,0.00,,---,0.01,VWS V14.01,2013-01-26 23:58:00,
2013-01-26 19:03:00,31.4,21.4,30.36,NNE,20,6.0,6.0,66,0.00,,---,0.01,VWS V14.01,2013-01-27 00:03:00,
2013-01-26 19:08:00,31.5,21.1,30.35,NW,317,6.0,7.0,65,0.00,,---,0.01,VWS V14.01,2013-01-27 00:08:00,
2013-01-26 19:13:00,31.6,20.8,30.35,NNW,338,5.0,7.0,64,0.00,,---,0.01,VWS V14.01,2013-01-27 00:13:00,
2013-01-26 19:18:00,31.5,20.7,30.35,NNW,345,5.0,7.0,64,0.00,,---,0.01,VWS V14.01,2013-01-27 00:18:00,
2013-01-26 19:23:00,31.5,20.4,30.35,NNW,334,6.0,9.0,63,0.00,,---,0.01,VWS V14.01,2013-01-27 00:23:00,
2013-01-26 19:28:00,31.4,20.3,30.35,NNW,334,4.0,9.0,63,0.00,,---,0.01,VWS V14.01,2013-01-27 00:28:00,
2013-01-26 19:33:00,31.4,20.3,30.36,NNW,344,6.0,7.0,63,0.00,,---,0.01,VWS V14.01,2013-01-27 00:33:00,
2013-01-26 19:38:00,31.3,20.2,30.36,WNW,301,3.0,7.0,63,0.00,,---,0.01,VWS V14.01,2013-01-27 00:38:00,
2013-01-26 19:43:00,31.3,20.2,30.36,NW,317,6.0,9.0,63,0.00,,---,0.01,VWS V14.01,2013-01-27 00:43:00,
2013-01-26 19:48:00,31.4,19.9,30.37,NW,325,4.0,11.0,62,0.00,,---,0.01,VWS V14.01,2013-01-27 00:48:00,
2013-01-26 19:53:00,31.3,19.8,30.37,NW,319,4.0,11.0,62,0.00,,---,0.01,VWS V14.01,2013-01-27 00:53:00,
2013-01-26 19:58:00,31.2,19.7,30.38,NNW,341,3.0,11.0,62,0.00,,---,0.01,VWS V14.01,2013-01-27 00:58:00,
2013-01-26 20:03:00,31.1,19.6,30.37,NW,321,2.0,5.0,62,0.00,,---,0.01,VWS V14.01,2013-01-27 01:03:00,
2013-01-26 20:08:00,31.1,19.6,30.38,NW,311,4.0,7.0,62,0.00,,---,0.01,VWS V14.01,2013-01-27 01:08:00,
2013-01-26 20:13:00,31.1,19.6,30.38,NNW,341,5.0,7.0,62,0.00,,---,0.01,VWS V14.01,2013-01-27 01:13:00,
2013-01-26 20:18:00,31.0,19.9,30.38,WNW,302,3.0,7.0,63,0.00,,---,0.01,VWS V14.01,2013-01-27 01:18:00,
2013-01-26 20:23:00,31.1,20.0,30.38,North,9,3.0,7.0,63,0.00,,---,0.01,VWS V14.01,2013-01-27 01:23:00,
2013-01-26 20:28:00,31.2,20.1,30.38,North,355,4.0,7.0,63,0.00,,---,0.01,VWS V14.01,2013-01-27 01:28:00,
2013-01-26 20:33:00,31.3,19.8,30.38,North,355,4.0,7.0,62,0.00,,---,0.01,VWS V14.01,2013-01-27 01:33:00,
2013-01-26 20:38:00,31.3,19.8,30.38,NNW,340,2.0,7.0,62,0.00,,---,0.01,VWS V14.01,2013-01-27 01:38:00,
2013-01-26 20:43:00,31.3,19.8,30.39,NNW,342,4.0,7.0,62,0.00,,---,0.01,VWS V14.01,2013-01-27 01:43:00,
2013-01-26 20:48:00,31.3,19.8,30.40,NW,319,5.0,7.0,62,0.00,,---,0.01,VWS V14.01,2013-01-27 01:48:00,
2013-01-26 20:53:00,31.2,19.7,30.40,NNE,13,4.0,7.0,62,0.00,,---,0.01,VWS V14.01,2013-01-27 01:53:00,
2013-01-26 20:58:00,31.3,19.8,30.40,NNW,346,3.0,7.0,62,0.00,,---,0.01,VWS V14.01,2013-01-27 01:58:00,
2013-01-26 21:03:00,31.3,19.4,30.40,WNW,301,5.0,10.0,61,0.00,,---,0.01,VWS V14.01,2013-01-27 02:03:00,
2013-01-26 21:08:00,31.3,19.4,30.40,NNW,336,4.0,10.0,61,0.00,,---,0.01,VWS V14.01,2013-01-27 02:08:00,
2013-01-26 21:13:00,31.3,19.4,30.40,NW,326,3.0,10.0,61,0.00,,---,0.01,VWS V14.01,2013-01-27 02:13:00,
2013-01-26 21:18:00,31.2,19.3,30.41,NNW,334,4.0,10.0,61,0.00,,---,0.01,VWS V14.01,2013-01-27 02:18:00,
2013-01-26 21:23:00,31.2,19.3,30.41,NW,312,4.0,10.0,61,0.00,,---,0.01,VWS V14.01,2013-01-27 02:23:00,
2013-01-26 21:28:00,31.2,19.3,30.42,North,355,3.0,10.0,61,0.00,,---,0.01,VWS V14.01,2013-01-27 02:28:00,
2013-01-26 21:33:00,31.2,19.3,30.42,North,5,4.0,7.0,61,0.00,,---,0.01,VWS V14.01,2013-01-27 02:33:00,
2013-01-26 21:38:00,31.2,19.7,30.42,North,360,3.0,7.0,62,0.00,,---,0.01,VWS V14.01,2013-01-27 02:38:00,
2013-01-26 21:43:00,31.2,19.3,30.42,NNW,343,3.0,7.0,61,0.00,,---,0.01,VWS V14.01,2013-01-27 02:43:00,
2013-01-26 21:48:00,31.1,19.6,30.42,NNW,337,3.0,7.0,62,0.00,,---,0.01,VWS V14.01,2013-01-27 02:48:00,
2013-01-26 21:53:00,31.1,19.6,30.43,NNW,347,4.0,9.0,62,0.00,,---,0.01,VWS V14.01,2013-01-27 02:53:00,
2013-01-26 21:58:00,31.1,19.6,30.43,NNW,329,6.0,10.0,62,0.00,,---,0.01,VWS V14.01,2013-01-27 02:58:00,
2013-01-26 22:03:00,31.0,19.1,30.42,WNW,290,4.0,10.0,61,0.00,,---,0.01,VWS V14.01,2013-01-27 03:03:00,
2013-01-26 22:08:00,31.1,19.2,30.43,NW,309,2.0,10.0,61,0.00,,---,0.01,VWS V14.01,2013-01-27 03:08:00,
2013-01-26 22:13:00,31.0,19.5,30.43,NW,309,0.0,10.0,62,0.00,,---,0.01,VWS V14.01,2013-01-27 03:13:00,
2013-01-26 22:18:00,30.9,19.4,30.43,NW,317,3.0,10.0,62,0.00,,---,0.01,VWS V14.01,2013-01-27 03:18:00,
2013-01-26 22:23:00,30.8,19.3,30.43,NW,324,2.0,10.0,62,0.00,,---,0.01,VWS V14.01,2013-01-27 03:23:00,
2013-01-26 22:28:00,30.8,19.7,30.43,NNW,335,3.0,10.0,63,0.00,,---,0.01,VWS V14.01,2013-01-27 03:28:00,
2013-01-26 22:33:00,30.7,19.6,30.44,NW,308,4.0,5.0,63,0.00,,---,0.01,VWS V14.01,2013-01-27 03:33:00,
2013-01-26 22:38:00,30.7,19.6,30.44,NW,304,3.0,6.0,63,0.00,,---,0.01,VWS V14.01,2013-01-27 03:38:00,
2013-01-26 22:43:00,30.6,19.9,30.44,NW,304,2.0,6.0,64,0.00,,---,0.01,VWS V14.01,2013-01-27 03:43:00,
2013-01-26 22:48:00,30.6,19.9,30.44,NW,304,1.0,6.0,64,0.00,,---,0.01,VWS V14.01,2013-01-27 03:48:00,
2013-01-26 22:53:00,30.5,19.8,30.44,NW,304,0.0,6.0,64,0.00,,---,0.01,VWS V14.01,2013-01-27 03:53:00,
2013-01-26 22:58:00,30.4,20.1,30.45,WNW,303,0.0,6.0,65,0.00,,---,0.01,VWS V14.01,2013-01-27 03:58:00,
2013-01-26 23:03:00,30.4,20.1,30.45,WNW,303,2.0,3.0,65,0.00,,---,0.01,VWS V14.01,2013-01-27 04:03:00,
2013-01-26 23:08:00,30.4,20.1,30.45,WNW,303,0.0,3.0,65,0.00,,---,0.01,VWS V14.01,2013-01-27 04:08:00,
2013-01-26 23:13:00,30.4,20.1,30.45,WNW,303,1.0,3.0,65,0.00,,---,0.01,VWS V14.01,2013-01-27 04:13:00,
2013-01-26 23:18:00,30.4,20.1,30.45,WNW,303,1.0,4.0,65,0.00,,---,0.01,VWS V14.01,2013-01-27 04:18:00,
2013-01-26 23:23:00,30.3,20.0,30.46,WNW,303,1.0,4.0,65,0.00,,---,0.01,VWS V14.01,2013-01-27 04:23:00,
2013-01-26 23:28:00,30.3,20.3,30.46,WNW,292,1.0,4.0,66,0.00,,---,0.01,VWS V14.01,2013-01-27 04:28:00,
2013-01-26 23:33:00,30.3,20.0,30.46,WNW,290,2.0,4.0,65,0.00,,---,0.01,VWS V14.01,2013-01-27 04:33:00,
2013-01-26 23:38:00,30.3,20.3,30.46,NW,311,1.0,5.0,66,0.00,,---,0.01,VWS V14.01,2013-01-27 04:38:00,
2013-01-26 23:43:00,30.3,20.3,30.46,NW,325,2.0,5.0,66,0.00,,---,0.01,VWS V14.01,2013-01-27 04:43:00,
2013-01-26 23:48:00,30.3,20.3,30.46,WNW,302,3.0,5.0,66,0.00,,---,0.01,VWS V14.01,2013-01-27 04:48:00,
2013-01-26 23:53:00,30.2,20.2,30.47,WNW,303,2.0,5.0,66,0.00,,---,0.01,VWS V14.01,2013-01-27 04:53:00,
2013-01-26 23:58:00,30.2,20.6,30.47,NW,309,3.0,5.0,67,0.00,,---,0.01,VWS V14.01,2013-01-27 04:58:00,